This demonstration page uses our WeatherBlox Daily Observations layout. Learn more.

Left ArrowRight Arrow

Hourly Observations for January 8, 2017

Temp ( °F °C ) Dew Point ( °F °C ) Humidity (%) Winds ( mph kmh ) Pressure ( in mb ) Visibility ( mi km ) Precip ( " mm )
12:53 am 00:53 Clear 15 -9.4 10 -12.2 80 80 SE 7 11 30.65 1038 10 16 0.00 0.00
1:53 am 01:53 Clear 15 -9.4 10 -12.2 80 80 SE 6 9 30.63 1037 10 16 0.00 0.00
2:53 am 02:53 Clear 15 -9.4 10 -12.2 80 80 SE 9 15 30.61 1037 10 16 0.00 0.00
3:53 am 03:53 Mostly Cloudy 18 -7.8 12 -11.1 77 77 ESE 10 17 30.59 1036 10 16 0.00 0.00
4:53 am 04:53 Cloudy 19 -7.2 13 -10.6 77 77 ESE 9 15 30.59 1036 10 16 0.00 0.00
5:53 am 05:53 Cloudy 20 -6.7 13 -10.6 74 74 SE 9 15 30.57 1035 10 16 0.00 0.00
6:53 am 06:53 Cloudy 21 -6.1 14 -10 74 74 SSE 10 17 30.55 1035 10 16 0.00 0.00
7:53 am 07:53 Mostly Cloudy 23 -5 14 -10 68 68 SSE 15 24 30.52 1034 10 16 0.00 0.00
8:53 am 08:53 Mostly Cloudy 27 -2.8 13 -10.6 55 55 S 20 31 30.47 1032 10 16 0.00 0.00
9:53 am 09:53 Mostly Cloudy 32 0 14 -10 47 47 S 17 28 30.45 1031 10 16 0.00 0.00
10:53 am 10:53 Mostly Cloudy 37 2.8 11 -11.7 34 34 S 29 46 30.46 1031 10 16 0.00 0.00
11:53 am 11:53 Mostly Cloudy 38 3.3 10 -12.2 31 31 S 29 46 30.40 1029 10 16 0.00 0.00
12:53 pm 12:53 Mostly Cloudy 41 5 9 -12.8 27 27 S 30 48 30.34 1027 10 16 0.00 0.00
1:53 pm 13:53 Mostly Cloudy 43 6.1 9 -12.8 25 25 S 30 48 30.28 1025 10 16 0.00 0.00
2:53 pm 14:53 Mostly Cloudy 43 6.1 11 -11.7 27 27 SSW 26 43 30.28 1025 10 16 0.00 0.00
3:53 pm 15:53 Partly Cloudy 41 5 12 -11.1 30 30 SSW 22 35 30.28 1026 10 16 0.00 0.00
4:53 pm 16:53 Partly Cloudy 41 5 15 -9.4 35 35 SSW 18 30 30.29 1026 10 16 0.00 0.00
5:53 pm 17:53 Partly Cloudy 36 2.2 15 -9.4 42 42 S 12 19 30.33 1027 10 16 0.00 0.00
6:53 pm 18:53 Partly Cloudy 30 -1.1 14 -10 51 51 S 10 17 30.34 1028 10 16 0.00 0.00
7:53 pm 19:53 Mostly Clear 29 -1.7 15 -9.4 56 56 S 10 17 30.34 1028 10 16 0.00 0.00
8:53 pm 20:53 Mostly Clear 25 -3.9 14 -10 63 63 S 9 15 30.36 1028 10 16 0.00 0.00
9:53 pm 21:53 Clear 27 -2.8 15 -9.4 61 61 S 9 15 30.35 1028 10 16 0.00 0.00
10:53 pm 22:53 Mostly Clear 28 -2.2 15 -9.4 58 58 S 12 19 30.34 1027 10 16 0.00 0.00
11:53 pm 23:53 Mostly Clear 27 -2.8 14 -10 58 58 S 9 15 30.34 1027 10 16 0.00 0.00

Powered by AerisWeather